This is the latest recevied weather packets stored in our database for station/object VA3BOO. If no packets are shown the sender has not sent any weather packets the latest 10 day(s).
| Time | Temp. | Humidity | Pressure | Rain* | Wind** | Luminosity | Snow |
|---|---|---|---|---|---|---|---|
| 1777675204 | 8.89° C | 45% | 1011.4 hPa | 0 mm | - | 48 W/m² | - |
| 1777674904 | 8.89° C | 43% | 1011.3 hPa | 0 mm | - | 48 W/m² | - |
| 1777674605 | 8.89° C | 41% | 1011.4 hPa | 0 mm | - | 49 W/m² | - |
| 1777674305 | 8.89° C | 41% | 1011.4 hPa | 0 mm | - | 44 W/m² | - |
| 1777674005 | 8.89° C | 39% | 1011.2 hPa | 0 mm | - | 48 W/m² | - |
| 1777673704 | 8.89° C | 42% | 1011.3 hPa | 0 mm | - | 72 W/m² | - |
| 1777673404 | 8.89° C | 39% | 1011.5 hPa | 0 mm | - | 65 W/m² | - |
| 1777673104 | 8.89° C | 41% | 1011.2 hPa | 0 mm | - | 51 W/m² | - |
| 1777672804 | 8.89° C | 41% | 1011.2 hPa | 0 mm | - | 47 W/m² | - |
| 1777672504 | 8.89° C | 40% | 1011.2 hPa | 0 mm | - | 38 W/m² | - |
| 1777672204 | 9.44° C | 39% | 1011.2 hPa | 0 mm | - | 44 W/m² | - |
| 1777671904 | 8.89° C | 39% | 1011.2 hPa | 0 mm | - | 50 W/m² | - |
| 1777671604 | 9.44° C | 39% | 1011.2 hPa | 0 mm | - | 52 W/m² | - |
| 1777671304 | 9.44° C | 38% | 1011.2 hPa | 0 mm | - | 51 W/m² | - |
| 1777671004 | 9.44° C | 38% | 1011.3 hPa | 0 mm | - | 52 W/m² | - |
| 1777670704 | 9.44° C | 37% | 1011 hPa | 0 mm | - | 51 W/m² | - |
| 1777670404 | 9.44° C | 39% | 1011.2 hPa | 0 mm | - | 50 W/m² | - |
| 1777670104 | 9.44° C | 38% | 1011.1 hPa | 0 mm | - | 49 W/m² | - |
| 1777669804 | 9.44° C | 38% | 1011.3 hPa | 0 mm | - | 51 W/m² | - |
| 1777669504 | 10° C | 39% | 1011.3 hPa | 0 mm | - | 60 W/m² | - |
| 1777669204 | 10° C | 39% | 1011.2 hPa | 0 mm | - | 66 W/m² | - |
| 1777668904 | 10° C | 37% | 1011.2 hPa | 0 mm | - | 80 W/m² | - |
| 1777668604 | 10° C | 38% | 1011 hPa | 0 mm | - | 98 W/m² | - |
| 1777668304 | 10.56° C | 37% | 1011.2 hPa | 0 mm | - | 109 W/m² | - |
| 1777668004 | 10.56° C | 37% | 1011.1 hPa | 0 mm | - | 131 W/m² | - |
* Rain latest hour (hover to see other rain measurements)
** Current wind speed in m/s (hover to see current wind gust speed)